Year,Month,Day,Hour,Minute,Value (Times are PST for temperature in C)
2011,07,24,00,00,17.40
2011,07,24,00,01,17.40
2011,07,24,00,02,17.40
2011,07,24,00,03,17.40
2011,07,24,00,04,17.40
2011,07,24,00,05,17.40
2011,07,24,00,06,17.40
2011,07,24,00,07,17.40
2011,07,24,00,08,17.40
2011,07,24,00,09,17.40
2011,07,24,00,10,17.40
2011,07,24,00,11,17.40
2011,07,24,00,12,17.40
2011,07,24,00,13,17.40
2011,07,24,00,14,17.30
2011,07,24,00,15,17.30
2011,07,24,00,16,17.30
2011,07,24,00,17,17.30
2011,07,24,00,18,17.30
2011,07,24,00,19,17.30
2011,07,24,00,20,17.30
2011,07,24,00,21,17.30
2011,07,24,00,22,17.30
2011,07,24,00,23,17.30
2011,07,24,00,24,17.30
2011,07,24,00,25,17.30
2011,07,24,00,26,17.30
2011,07,24,00,27,17.30
2011,07,24,00,28,17.30
2011,07,24,00,29,17.30
2011,07,24,00,30,17.30
2011,07,24,00,31,17.30
2011,07,24,00,32,17.30
2011,07,24,00,33,17.30
2011,07,24,00,34,17.30
2011,07,24,00,35,17.30
2011,07,24,00,36,17.30
2011,07,24,00,37,17.30
2011,07,24,00,38,17.30
2011,07,24,00,39,17.30
2011,07,24,00,40,17.30
2011,07,24,00,41,17.30
2011,07,24,00,42,17.20
2011,07,24,00,43,17.20
2011,07,24,00,44,17.20
2011,07,24,00,45,17.20
2011,07,24,00,46,17.20
2011,07,24,00,47,17.20
2011,07,24,00,48,17.10
2011,07,24,00,49,17.10
2011,07,24,00,50,17.10
2011,07,24,00,51,17.00
2011,07,24,00,52,17.00
2011,07,24,00,53,17.00
2011,07,24,00,54,16.90
2011,07,24,00,55,16.90
2011,07,24,00,56,16.90
2011,07,24,00,57,16.90
2011,07,24,00,58,16.90
2011,07,24,00,59,16.80
2011,07,24,01,00,16.80
2011,07,24,01,01,16.80
2011,07,24,01,02,16.80
2011,07,24,01,03,16.80
2011,07,24,01,04,16.80
2011,07,24,01,05,16.80
2011,07,24,01,06,16.80
2011,07,24,01,07,16.80
2011,07,24,01,08,16.80
2011,07,24,01,09,16.80
2011,07,24,01,10,16.80
2011,07,24,01,11,16.80
2011,07,24,01,12,16.80
2011,07,24,01,13,16.70
2011,07,24,01,14,16.70
2011,07,24,01,15,16.70
2011,07,24,01,16,16.70
2011,07,24,01,17,16.70
2011,07,24,01,18,16.70
2011,07,24,01,19,16.70
2011,07,24,01,20,16.60
2011,07,24,01,21,16.60
2011,07,24,01,22,16.60
2011,07,24,01,23,16.60
2011,07,24,01,24,16.50
2011,07,24,01,25,16.40
2011,07,24,01,26,16.40
2011,07,24,01,27,16.40
2011,07,24,01,28,16.40
2011,07,24,01,29,16.40
2011,07,24,01,30,16.40
2011,07,24,01,31,16.40
2011,07,24,01,32,16.40
2011,07,24,01,33,16.40
2011,07,24,01,34,16.40
2011,07,24,01,35,16.40
2011,07,24,01,36,16.40
2011,07,24,01,37,16.30
2011,07,24,01,38,16.30
2011,07,24,01,39,16.30
2011,07,24,01,40,16.30
2011,07,24,01,41,16.20
2011,07,24,01,42,16.20
2011,07,24,01,43,16.20
2011,07,24,01,44,16.20
2011,07,24,01,45,16.20
2011,07,24,01,46,16.20
2011,07,24,01,47,16.20
2011,07,24,01,48,16.20
2011,07,24,01,49,16.20
2011,07,24,01,50,16.20
2011,07,24,01,51,16.30
2011,07,24,01,52,16.30
2011,07,24,01,53,16.30
2011,07,24,01,54,16.30
2011,07,24,01,55,16.30
2011,07,24,01,56,16.30
2011,07,24,01,57,16.30
2011,07,24,01,58,16.30
2011,07,24,01,59,16.30
2011,07,24,02,00,16.40
2011,07,24,02,01,16.40
2011,07,24,02,02,16.40
2011,07,24,02,03,16.40
2011,07,24,02,04,16.40
2011,07,24,02,05,16.40
2011,07,24,02,06,16.40
2011,07,24,02,07,16.40
2011,07,24,02,08,16.40
2011,07,24,02,09,16.40
2011,07,24,02,10,16.40
2011,07,24,02,11,16.40
2011,07,24,02,12,16.40
2011,07,24,02,13,16.40
2011,07,24,02,14,16.40
2011,07,24,02,15,16.40
2011,07,24,02,16,16.40
2011,07,24,02,17,16.40
2011,07,24,02,18,16.40
2011,07,24,02,19,16.40
2011,07,24,02,20,16.40
2011,07,24,02,21,16.50
2011,07,24,02,22,16.60
2011,07,24,02,23,16.60
2011,07,24,02,24,16.60
2011,07,24,02,25,16.60
2011,07,24,02,26,16.60
2011,07,24,02,27,16.50
2011,07,24,02,28,16.40
2011,07,24,02,29,16.40
2011,07,24,02,30,16.40
2011,07,24,02,31,16.40
2011,07,24,02,32,16.40
2011,07,24,02,33,16.40
2011,07,24,02,34,16.40
2011,07,24,02,35,16.40
2011,07,24,02,36,16.30
2011,07,24,02,37,16.30
2011,07,24,02,38,16.30
2011,07,24,02,39,16.30
2011,07,24,02,40,16.30
2011,07,24,02,41,16.30
2011,07,24,02,42,16.20
2011,07,24,02,43,16.20
2011,07,24,02,44,16.20
2011,07,24,02,45,16.20
2011,07,24,02,46,16.20
2011,07,24,02,47,16.20
2011,07,24,02,48,16.20
2011,07,24,02,49,16.20
2011,07,24,02,50,16.20
2011,07,24,02,51,16.10
2011,07,24,02,52,16.10
2011,07,24,02,53,16.10
2011,07,24,02,54,16.10
2011,07,24,02,55,16.10
2011,07,24,02,56,16.10
2011,07,24,02,57,16.10
2011,07,24,02,58,16.10
2011,07,24,02,59,16.10
2011,07,24,03,00,16.10
2011,07,24,03,01,16.10
2011,07,24,03,02,16.10
2011,07,24,03,03,16.10
2011,07,24,03,04,16.10
2011,07,24,03,05,16.10
2011,07,24,03,06,16.10
2011,07,24,03,07,16.10
2011,07,24,03,08,16.10
2011,07,24,03,09,16.10
2011,07,24,03,10,16.10
2011,07,24,03,11,16.10
2011,07,24,03,12,16.10
2011,07,24,03,13,16.10
2011,07,24,03,14,16.10
2011,07,24,03,15,16.10
2011,07,24,03,16,16.10
2011,07,24,03,17,16.10
2011,07,24,03,18,16.10
2011,07,24,03,19,16.10
2011,07,24,03,20,16.10
2011,07,24,03,21,16.00
2011,07,24,03,22,15.90
2011,07,24,03,23,15.90
2011,07,24,03,24,15.90
2011,07,24,03,25,15.90
2011,07,24,03,26,15.90
2011,07,24,03,27,15.80
2011,07,24,03,28,15.80
2011,07,24,03,29,15.80
2011,07,24,03,30,15.80
2011,07,24,03,31,15.80
2011,07,24,03,32,15.80
2011,07,24,03,33,15.70
2011,07,24,03,34,15.70
2011,07,24,03,35,15.60
2011,07,24,03,36,15.60
2011,07,24,03,37,15.60
2011,07,24,03,38,15.50
2011,07,24,03,39,15.50
2011,07,24,03,40,15.50
2011,07,24,03,41,15.40
2011,07,24,03,42,15.40
2011,07,24,03,43,15.40
2011,07,24,03,44,15.40
2011,07,24,03,45,15.50
2011,07,24,03,46,15.50
2011,07,24,03,47,15.50
2011,07,24,03,48,15.50
2011,07,24,03,49,15.50
2011,07,24,03,50,15.50
2011,07,24,03,51,15.50
2011,07,24,03,52,15.50
2011,07,24,03,53,15.50
2011,07,24,03,54,15.50
2011,07,24,03,55,15.50
2011,07,24,03,56,15.50
2011,07,24,03,57,15.50
2011,07,24,03,58,15.50
2011,07,24,03,59,15.50
2011,07,24,04,00,15.50
2011,07,24,04,01,15.50
2011,07,24,04,02,15.50
2011,07,24,04,03,15.50
2011,07,24,04,04,15.50
2011,07,24,04,05,15.40
2011,07,24,04,06,15.40
2011,07,24,04,07,15.40
2011,07,24,04,08,15.30
2011,07,24,04,09,15.30
2011,07,24,04,10,15.30
2011,07,24,04,11,15.30
2011,07,24,04,12,15.30
2011,07,24,04,13,15.30
2011,07,24,04,14,15.30
2011,07,24,04,15,15.20
2011,07,24,04,16,15.20
2011,07,24,04,17,15.20
2011,07,24,04,18,15.20
2011,07,24,04,19,15.20
2011,07,24,04,20,15.20
2011,07,24,04,21,15.20
2011,07,24,04,22,15.20
2011,07,24,04,23,15.20
2011,07,24,04,24,15.20
2011,07,24,04,25,15.20
2011,07,24,04,26,15.20
2011,07,24,04,27,15.20
2011,07,24,04,28,15.20
2011,07,24,04,29,15.20
2011,07,24,04,30,15.20
2011,07,24,04,31,15.20
2011,07,24,04,32,15.20
2011,07,24,04,33,15.20
2011,07,24,04,34,15.20
2011,07,24,04,35,15.30
2011,07,24,04,36,15.30
2011,07,24,04,37,15.30
2011,07,24,04,38,15.30
2011,07,24,04,39,15.30
2011,07,24,04,40,15.30
2011,07,24,04,41,15.30
2011,07,24,04,42,15.30
2011,07,24,04,43,15.30
2011,07,24,04,44,15.20
2011,07,24,04,45,15.20
2011,07,24,04,46,15.20
2011,07,24,04,47,15.20
2011,07,24,04,48,15.20
2011,07,24,04,49,15.20
2011,07,24,04,50,15.20
2011,07,24,04,51,15.20
2011,07,24,04,52,15.20
2011,07,24,04,53,15.20
2011,07,24,04,54,15.10
2011,07,24,04,55,15.10
2011,07,24,04,56,15.10
2011,07,24,04,57,15.10
2011,07,24,04,58,15.10
2011,07,24,04,59,15.10
2011,07,24,05,00,15.20
2011,07,24,05,01,15.20
2011,07,24,05,02,15.30
2011,07,24,05,03,15.30
2011,07,24,05,04,15.30
2011,07,24,05,05,15.40
2011,07,24,05,06,15.40
2011,07,24,05,07,15.50
2011,07,24,05,08,15.50
2011,07,24,05,09,15.60
2011,07,24,05,10,15.60
2011,07,24,05,11,15.60
2011,07,24,05,12,15.60
2011,07,24,05,13,15.70
2011,07,24,05,14,15.70
2011,07,24,05,15,15.70
2011,07,24,05,16,15.70
2011,07,24,05,17,15.70
2011,07,24,05,18,15.70
2011,07,24,05,19,15.70
2011,07,24,05,20,15.70
2011,07,24,05,21,15.70
2011,07,24,05,22,15.70
2011,07,24,05,23,15.70
2011,07,24,05,24,15.70
2011,07,24,05,25,15.70
2011,07,24,05,26,15.70
2011,07,24,05,27,15.70
2011,07,24,05,28,15.70
2011,07,24,05,29,15.70
2011,07,24,05,30,15.70
2011,07,24,05,31,15.80
2011,07,24,05,32,15.80
2011,07,24,05,33,15.80
2011,07,24,05,34,15.80
2011,07,24,05,35,15.80
2011,07,24,05,36,15.90
2011,07,24,05,37,15.90
2011,07,24,05,38,15.90
2011,07,24,05,39,16.00
2011,07,24,05,40,16.10
2011,07,24,05,41,16.10
2011,07,24,05,42,16.10
2011,07,24,05,43,16.10
2011,07,24,05,44,16.10
2011,07,24,05,45,16.10
2011,07,24,05,46,16.20
2011,07,24,05,47,16.20
2011,07,24,05,48,16.20
2011,07,24,05,49,16.20
2011,07,24,05,50,16.20
2011,07,24,05,51,16.20
2011,07,24,05,52,16.20
2011,07,24,05,53,16.20
2011,07,24,05,54,16.20
2011,07,24,05,55,16.30
2011,07,24,05,56,16.30
2011,07,24,05,57,16.30
2011,07,24,05,58,16.30
2011,07,24,05,59,16.30
2011,07,24,06,00,16.30
2011,07,24,06,01,16.30
2011,07,24,06,02,16.30
2011,07,24,06,03,16.30
2011,07,24,06,04,16.30
2011,07,24,06,05,16.30
2011,07,24,06,06,16.30
2011,07,24,06,07,16.30
2011,07,24,06,08,16.30
2011,07,24,06,09,16.40
2011,07,24,06,10,16.40
2011,07,24,06,11,16.30
2011,07,24,06,12,16.30
2011,07,24,06,13,16.30
2011,07,24,06,14,16.30
2011,07,24,06,15,16.30
2011,07,24,06,16,16.20
2011,07,24,06,17,16.20
2011,07,24,06,18,16.20
2011,07,24,06,19,16.20
2011,07,24,06,20,16.20
2011,07,24,06,21,16.20
2011,07,24,06,22,16.30
2011,07,24,06,23,16.30
2011,07,24,06,24,16.30
2011,07,24,06,25,16.40
2011,07,24,06,26,16.40
2011,07,24,06,27,16.40
2011,07,24,06,28,16.40
2011,07,24,06,29,16.40
2011,07,24,06,30,16.50
2011,07,24,06,31,16.60
2011,07,24,06,32,16.60
2011,07,24,06,33,16.70
2011,07,24,06,34,16.70
2011,07,24,06,35,16.70
2011,07,24,06,36,16.70
2011,07,24,06,37,16.70
2011,07,24,06,38,16.80
2011,07,24,06,39,16.80
2011,07,24,06,40,16.80
2011,07,24,06,41,16.90
2011,07,24,06,42,16.90
2011,07,24,06,43,16.90
2011,07,24,06,44,17.00
2011,07,24,06,45,17.00
2011,07,24,06,46,17.00
2011,07,24,06,47,17.00
2011,07,24,06,48,17.10
2011,07,24,06,49,17.10
2011,07,24,06,50,17.10
2011,07,24,06,51,17.10
2011,07,24,06,52,17.10
2011,07,24,06,53,17.10
2011,07,24,06,54,17.10
2011,07,24,06,55,17.10
2011,07,24,06,56,17.10
2011,07,24,06,57,17.10
2011,07,24,06,58,17.10
2011,07,24,06,59,17.10
2011,07,24,07,00,17.10
2011,07,24,07,01,17.10
2011,07,24,07,02,17.10
2011,07,24,07,03,17.10
2011,07,24,07,04,17.20
2011,07,24,07,05,17.20
2011,07,24,07,06,17.20
2011,07,24,07,07,17.30
2011,07,24,07,08,17.30
2011,07,24,07,09,17.30
2011,07,24,07,10,17.30
2011,07,24,07,11,17.30
2011,07,24,07,12,17.30
2011,07,24,07,13,17.30
2011,07,24,07,14,17.30
2011,07,24,07,15,17.40
2011,07,24,07,16,17.50
2011,07,24,07,17,17.50
2011,07,24,07,18,17.50
2011,07,24,07,19,17.60
2011,07,24,07,20,17.60
2011,07,24,07,21,17.60
2011,07,24,07,22,17.60
2011,07,24,07,23,17.70
2011,07,24,07,24,17.70
2011,07,24,07,25,17.70
2011,07,24,07,26,17.70
2011,07,24,07,27,17.70
2011,07,24,07,28,17.80
2011,07,24,07,29,17.80
2011,07,24,07,30,17.80
2011,07,24,07,31,17.80
2011,07,24,07,32,17.80
2011,07,24,07,33,17.80
2011,07,24,07,34,17.80
2011,07,24,07,35,17.80
2011,07,24,07,36,17.80
2011,07,24,07,37,17.80
2011,07,24,07,38,17.80
2011,07,24,07,39,17.80
2011,07,24,07,40,17.80
2011,07,24,07,41,17.70
2011,07,24,07,42,17.70
2011,07,24,07,43,17.70
2011,07,24,07,44,17.70
2011,07,24,07,45,17.70
2011,07,24,07,46,17.70
2011,07,24,07,47,17.70
2011,07,24,07,48,17.70
2011,07,24,07,49,17.70
2011,07,24,07,50,17.70
2011,07,24,07,51,17.70
2011,07,24,07,52,17.70
2011,07,24,07,53,17.70
2011,07,24,07,54,17.70
2011,07,24,07,55,17.70
2011,07,24,07,56,17.70
2011,07,24,07,57,17.70
2011,07,24,07,58,17.70
2011,07,24,07,59,17.70
2011,07,24,08,00,17.70
2011,07,24,08,01,17.70
2011,07,24,08,02,17.70
2011,07,24,08,03,17.80
2011,07,24,08,04,17.80
2011,07,24,08,05,17.80
2011,07,24,08,06,17.80
2011,07,24,08,07,17.80
2011,07,24,08,08,17.90
2011,07,24,08,09,17.90
2011,07,24,08,10,17.90
2011,07,24,08,11,17.90
2011,07,24,08,12,17.90
2011,07,24,08,13,18.00
2011,07,24,08,14,18.10
2011,07,24,08,15,18.20
2011,07,24,08,16,18.20
2011,07,24,08,17,18.20
2011,07,24,08,18,18.20
2011,07,24,08,19,18.20
2011,07,24,08,20,18.20
2011,07,24,08,21,18.30
2011,07,24,08,22,18.30
2011,07,24,08,23,18.30
2011,07,24,08,24,18.40
2011,07,24,08,25,18.40
2011,07,24,08,26,18.40
2011,07,24,08,27,18.50
2011,07,24,08,28,18.60
2011,07,24,08,29,18.60
2011,07,24,08,30,18.70
2011,07,24,08,31,18.70
2011,07,24,08,32,18.70
2011,07,24,08,33,18.70
2011,07,24,08,34,18.70
2011,07,24,08,35,18.70
2011,07,24,08,36,18.70
2011,07,24,08,37,18.60
2011,07,24,08,38,18.60
2011,07,24,08,39,18.60
2011,07,24,08,40,18.50
2011,07,24,08,41,18.50
2011,07,24,08,42,18.40
2011,07,24,08,43,18.50
2011,07,24,08,44,18.50
2011,07,24,08,45,18.50
2011,07,24,08,46,18.50
2011,07,24,08,47,18.50
2011,07,24,08,48,18.50
2011,07,24,08,49,18.50
2011,07,24,08,50,18.50
2011,07,24,08,51,18.50
2011,07,24,08,52,18.50
2011,07,24,08,53,18.50
2011,07,24,08,54,18.40
2011,07,24,08,55,18.50
2011,07,24,08,56,18.50
2011,07,24,08,57,18.50
2011,07,24,08,58,18.60
2011,07,24,08,59,18.60
2011,07,24,09,00,18.60
2011,07,24,09,01,18.60
2011,07,24,09,02,18.60
2011,07,24,09,03,18.70
2011,07,24,09,04,18.70
2011,07,24,09,05,18.70
2011,07,24,09,06,18.80
2011,07,24,09,07,18.90
2011,07,24,09,08,18.90
2011,07,24,09,09,18.90
2011,07,24,09,10,18.90
2011,07,24,09,11,18.90
2011,07,24,09,12,18.90
2011,07,24,09,13,18.80
2011,07,24,09,14,18.70
2011,07,24,09,15,18.60
2011,07,24,09,16,18.50
2011,07,24,09,17,18.40
2011,07,24,09,18,18.40
2011,07,24,09,19,18.30
2011,07,24,09,20,18.30
2011,07,24,09,21,18.30
2011,07,24,09,22,18.40
2011,07,24,09,23,18.50
2011,07,24,09,24,18.50
2011,07,24,09,25,18.50
2011,07,24,09,26,18.50
2011,07,24,09,27,18.60
2011,07,24,09,28,18.60
2011,07,24,09,29,18.70
2011,07,24,09,30,18.70
2011,07,24,09,31,18.80
2011,07,24,09,32,18.90
2011,07,24,09,33,19.00
2011,07,24,09,34,19.10
2011,07,24,09,35,19.20
2011,07,24,09,36,19.30
2011,07,24,09,37,19.40
2011,07,24,09,38,19.40
2011,07,24,09,39,19.30
2011,07,24,09,40,19.30
2011,07,24,09,41,19.20
2011,07,24,09,42,19.20
2011,07,24,09,43,19.30
2011,07,24,09,44,19.30
2011,07,24,09,45,19.30
2011,07,24,09,46,19.40
2011,07,24,09,47,19.50
2011,07,24,09,48,19.40
2011,07,24,09,49,19.50
2011,07,24,09,50,19.50
2011,07,24,09,51,19.40
2011,07,24,09,52,19.30
2011,07,24,09,53,19.10
2011,07,24,09,54,19.00
2011,07,24,09,55,18.90
2011,07,24,09,56,18.90
2011,07,24,09,57,19.00
2011,07,24,09,58,19.10
2011,07,24,09,59,19.10
2011,07,24,10,00,19.10
2011,07,24,10,01,19.10
2011,07,24,10,02,19.10
2011,07,24,10,03,19.20
2011,07,24,10,04,19.20
2011,07,24,10,05,19.30
2011,07,24,10,06,19.40
2011,07,24,10,07,19.40
2011,07,24,10,08,19.40
2011,07,24,10,09,19.50
2011,07,24,10,10,19.50
2011,07,24,10,11,19.60
2011,07,24,10,12,19.70
2011,07,24,10,13,19.70
2011,07,24,10,14,19.70
2011,07,24,10,15,19.70
2011,07,24,10,16,19.80
2011,07,24,10,17,19.80
2011,07,24,10,18,19.90
2011,07,24,10,19,19.90
2011,07,24,10,20,19.90
2011,07,24,10,21,19.90
2011,07,24,10,22,19.90
2011,07,24,10,23,20.10
2011,07,24,10,24,20.10
2011,07,24,10,25,20.10
2011,07,24,10,26,20.20
2011,07,24,10,27,20.20
2011,07,24,10,28,20.20
2011,07,24,10,29,20.20
2011,07,24,10,30,20.20
2011,07,24,10,31,20.20
2011,07,24,10,32,20.20
2011,07,24,10,33,20.20
2011,07,24,10,34,20.20
2011,07,24,10,35,20.20
2011,07,24,10,36,20.20
2011,07,24,10,37,20.20
2011,07,24,10,38,20.20
2011,07,24,10,39,20.20
2011,07,24,10,40,20.20
2011,07,24,10,41,20.20
2011,07,24,10,42,20.20
2011,07,24,10,43,20.30
2011,07,24,10,44,20.30
2011,07,24,10,45,20.30
2011,07,24,10,46,20.30
2011,07,24,10,47,20.20
2011,07,24,10,48,20.20
2011,07,24,10,49,20.20
2011,07,24,10,50,20.20
2011,07,24,10,51,20.00
2011,07,24,10,52,19.90
2011,07,24,10,53,19.90
2011,07,24,10,54,19.90
2011,07,24,10,55,19.80
2011,07,24,10,56,19.80
2011,07,24,10,57,19.70
2011,07,24,10,58,19.60
2011,07,24,10,59,19.60
2011,07,24,11,00,19.60
2011,07,24,11,01,19.70
2011,07,24,11,02,19.80
2011,07,24,11,03,19.80
2011,07,24,11,04,19.80
2011,07,24,11,05,19.80
2011,07,24,11,06,19.70
2011,07,24,11,07,19.60
2011,07,24,11,08,19.50
2011,07,24,11,09,19.40
2011,07,24,11,10,19.40
2011,07,24,11,11,19.50
2011,07,24,11,12,19.50
2011,07,24,11,13,19.50
2011,07,24,11,14,19.60
2011,07,24,11,15,19.60
2011,07,24,11,16,19.50
2011,07,24,11,17,19.50
2011,07,24,11,18,19.40
2011,07,24,11,19,19.40
2011,07,24,11,20,19.50
2011,07,24,11,21,19.50
2011,07,24,11,22,19.60
2011,07,24,11,23,19.60
2011,07,24,11,24,19.60
2011,07,24,11,25,19.60
2011,07,24,11,26,19.70
2011,07,24,11,27,19.70
2011,07,24,11,28,19.80
2011,07,24,11,29,19.90
2011,07,24,11,30,20.00
2011,07,24,11,31,20.10
2011,07,24,11,32,20.20
2011,07,24,11,33,20.20
2011,07,24,11,34,20.30
2011,07,24,11,35,20.30
2011,07,24,11,36,20.30
2011,07,24,11,37,20.30
2011,07,24,11,38,20.30
2011,07,24,11,39,20.30
2011,07,24,11,40,20.40
2011,07,24,11,41,20.40
2011,07,24,11,42,20.50
2011,07,24,11,43,20.50
2011,07,24,11,44,20.40
2011,07,24,11,45,20.40
2011,07,24,11,46,20.40
2011,07,24,11,47,20.40
2011,07,24,11,48,20.50
2011,07,24,11,49,20.50
2011,07,24,11,50,20.60
2011,07,24,11,51,20.50
2011,07,24,11,52,20.40
2011,07,24,11,53,20.30
2011,07,24,11,54,20.20
2011,07,24,11,55,20.20
2011,07,24,11,56,20.10
2011,07,24,11,57,20.00
2011,07,24,11,58,19.90
2011,07,24,11,59,19.90
2011,07,24,12,00,19.90
2011,07,24,12,01,19.90
2011,07,24,12,02,20.10
2011,07,24,12,03,20.10
2011,07,24,12,04,20.10
2011,07,24,12,05,20.10
2011,07,24,12,06,20.10
2011,07,24,12,07,20.10
2011,07,24,12,08,20.10
2011,07,24,12,09,20.20
2011,07,24,12,10,20.20
2011,07,24,12,11,20.20
2011,07,24,12,12,20.20
2011,07,24,12,13,20.30
2011,07,24,12,14,20.40
2011,07,24,12,15,20.50
2011,07,24,12,16,20.50
2011,07,24,12,17,20.60
2011,07,24,12,18,20.60
2011,07,24,12,19,20.70
2011,07,24,12,20,20.80
2011,07,24,12,21,20.90
2011,07,24,12,22,21.00
2011,07,24,12,23,21.20
2011,07,24,12,24,21.30
2011,07,24,12,25,21.60
2011,07,24,12,26,21.60
2011,07,24,12,27,21.60
2011,07,24,12,28,21.60
2011,07,24,12,29,21.60
2011,07,24,12,30,21.60
2011,07,24,12,31,21.60
2011,07,24,12,32,21.50
2011,07,24,12,33,21.40
2011,07,24,12,34,21.30
2011,07,24,12,35,21.30
2011,07,24,12,36,21.40
2011,07,24,12,37,21.60
2011,07,24,12,38,21.60
2011,07,24,12,39,21.70
2011,07,24,12,40,21.70
2011,07,24,12,41,21.60
2011,07,24,12,42,21.60
2011,07,24,12,43,21.60
2011,07,24,12,44,21.60
2011,07,24,12,45,21.60
2011,07,24,12,46,21.80
2011,07,24,12,47,21.90
2011,07,24,12,48,22.00
2011,07,24,12,49,22.10
2011,07,24,12,50,22.10
2011,07,24,12,51,22.00
2011,07,24,12,52,22.00
2011,07,24,12,53,22.00
2011,07,24,12,54,22.00
2011,07,24,12,55,22.10
2011,07,24,12,56,22.20
2011,07,24,12,57,22.30
2011,07,24,12,58,22.40
2011,07,24,12,59,22.40
2011,07,24,13,00,22.40
2011,07,24,13,01,22.40
2011,07,24,13,02,22.50
2011,07,24,13,03,22.50
2011,07,24,13,04,22.50
2011,07,24,13,05,22.40
2011,07,24,13,06,22.40
2011,07,24,13,07,22.40
2011,07,24,13,08,22.40
2011,07,24,13,09,22.40
2011,07,24,13,10,22.40
2011,07,24,13,11,22.40
2011,07,24,13,12,22.40
2011,07,24,13,13,22.40
2011,07,24,13,14,22.40
2011,07,24,13,15,22.30
2011,07,24,13,16,22.30
2011,07,24,13,17,22.30
2011,07,24,13,18,22.30
2011,07,24,13,19,22.40
2011,07,24,13,20,22.40
2011,07,24,13,21,22.40
2011,07,24,13,22,22.40
2011,07,24,13,23,22.40
2011,07,24,13,24,22.40
2011,07,24,13,25,22.40
2011,07,24,13,26,22.40
2011,07,24,13,27,22.50
2011,07,24,13,28,22.40
2011,07,24,13,29,22.40
2011,07,24,13,30,22.40
2011,07,24,13,31,22.50
2011,07,24,13,32,22.70
2011,07,24,13,33,22.80
2011,07,24,13,34,22.90
2011,07,24,13,35,23.00
2011,07,24,13,36,23.10
2011,07,24,13,37,23.20
2011,07,24,13,38,23.10
2011,07,24,13,39,23.00
2011,07,24,13,40,22.80
2011,07,24,13,41,22.80
2011,07,24,13,42,22.80
2011,07,24,13,43,22.80
2011,07,24,13,44,22.90
2011,07,24,13,45,22.90
2011,07,24,13,46,22.90
2011,07,24,13,47,22.90
2011,07,24,13,48,22.90
2011,07,24,13,49,23.00
2011,07,24,13,50,23.10
2011,07,24,13,51,23.20
2011,07,24,13,52,23.20
2011,07,24,13,53,23.20
2011,07,24,13,54,23.10
2011,07,24,13,55,23.10
2011,07,24,13,56,23.00
2011,07,24,13,57,22.90
2011,07,24,13,58,22.90
2011,07,24,13,59,22.90
2011,07,24,14,00,22.80
2011,07,24,14,01,22.80
2011,07,24,14,02,22.80
2011,07,24,14,03,22.80
2011,07,24,14,04,22.70
2011,07,24,14,05,22.60
2011,07,24,14,06,22.60
2011,07,24,14,07,22.50
2011,07,24,14,08,22.50
2011,07,24,14,09,22.40
2011,07,24,14,10,22.40
2011,07,24,14,11,22.40
2011,07,24,14,12,22.40
2011,07,24,14,13,22.40
2011,07,24,14,14,22.50
2011,07,24,14,15,22.50
2011,07,24,14,16,22.50
2011,07,24,14,17,22.50
2011,07,24,14,18,22.60
2011,07,24,14,19,22.60
2011,07,24,14,20,22.70
2011,07,24,14,21,22.80
2011,07,24,14,22,22.90
2011,07,24,14,23,22.90
2011,07,24,14,24,23.10
2011,07,24,14,25,23.20
2011,07,24,14,26,23.30
2011,07,24,14,27,23.30
2011,07,24,14,28,23.30
2011,07,24,14,29,23.30
2011,07,24,14,30,23.10
2011,07,24,14,31,23.00
2011,07,24,14,32,22.90
2011,07,24,14,33,22.90
2011,07,24,14,34,22.90
2011,07,24,14,35,22.90
2011,07,24,14,36,22.90
2011,07,24,14,37,23.00
2011,07,24,14,38,23.10
2011,07,24,14,39,23.30
2011,07,24,14,40,23.30
2011,07,24,14,41,23.20
2011,07,24,14,42,23.30
2011,07,24,14,43,23.30
2011,07,24,14,44,23.20
2011,07,24,14,45,23.20
2011,07,24,14,46,23.20
2011,07,24,14,47,23.20
2011,07,24,14,48,23.20
2011,07,24,14,49,23.10
2011,07,24,14,50,23.20
2011,07,24,14,51,23.20
2011,07,24,14,52,23.30
2011,07,24,14,53,23.40
2011,07,24,14,54,23.60
2011,07,24,14,55,23.70
2011,07,24,14,56,23.70
2011,07,24,14,57,23.80
2011,07,24,14,58,23.80
2011,07,24,14,59,23.90
2011,07,24,15,00,23.90
2011,07,24,15,01,23.90
2011,07,24,15,02,23.80
2011,07,24,15,03,23.70
2011,07,24,15,04,23.60
2011,07,24,15,05,23.60
2011,07,24,15,06,23.60
2011,07,24,15,07,23.60
2011,07,24,15,08,23.70
2011,07,24,15,09,23.80
2011,07,24,15,10,23.80
2011,07,24,15,11,24.00
2011,07,24,15,12,24.10
2011,07,24,15,13,24.10
2011,07,24,15,14,24.10
2011,07,24,15,15,24.20
2011,07,24,15,16,24.20
2011,07,24,15,17,24.20
2011,07,24,15,18,24.20
2011,07,24,15,19,24.20
2011,07,24,15,20,24.20
2011,07,24,15,21,24.20
2011,07,24,15,22,24.20
2011,07,24,15,23,24.10
2011,07,24,15,24,24.10
2011,07,24,15,25,24.10
2011,07,24,15,26,24.10
2011,07,24,15,27,24.20
2011,07,24,15,28,24.20
2011,07,24,15,29,24.30
2011,07,24,15,30,24.30
2011,07,24,15,31,24.40
2011,07,24,15,32,24.50
2011,07,24,15,33,24.60
2011,07,24,15,34,24.70
2011,07,24,15,35,24.70
2011,07,24,15,36,24.70
2011,07,24,15,37,24.70
2011,07,24,15,38,24.80
2011,07,24,15,39,24.80
2011,07,24,15,40,24.90
2011,07,24,15,41,24.90
2011,07,24,15,42,24.90
2011,07,24,15,43,25.00
2011,07,24,15,44,25.10
2011,07,24,15,45,25.20
2011,07,24,15,46,25.30
2011,07,24,15,47,25.40
2011,07,24,15,48,25.40
2011,07,24,15,49,25.50
2011,07,24,15,50,25.50
2011,07,24,15,51,25.50
2011,07,24,15,52,25.50
2011,07,24,15,53,25.50
2011,07,24,15,54,25.60
2011,07,24,15,55,25.70
2011,07,24,15,56,25.80
2011,07,24,15,57,25.90
2011,07,24,15,58,26.00
2011,07,24,15,59,26.00
2011,07,24,16,00,26.00
2011,07,24,16,01,26.20
2011,07,24,16,02,26.20
2011,07,24,16,03,26.30
2011,07,24,16,04,26.30
2011,07,24,16,05,26.40
2011,07,24,16,06,26.50
2011,07,24,16,07,26.60
2011,07,24,16,08,26.70
2011,07,24,16,09,26.80
2011,07,24,16,10,26.90
2011,07,24,16,11,27.10
2011,07,24,16,12,27.10
2011,07,24,16,13,27.30
2011,07,24,16,14,27.30
2011,07,24,16,15,27.30
2011,07,24,16,16,27.40
2011,07,24,16,17,27.40
2011,07,24,16,18,27.40
2011,07,24,16,19,27.60
2011,07,24,16,20,27.50
2011,07,24,16,21,27.40
2011,07,24,16,22,27.40
2011,07,24,16,23,27.30
2011,07,24,16,24,27.30
2011,07,24,16,25,27.30
2011,07,24,16,26,27.30
2011,07,24,16,27,27.30
2011,07,24,16,28,27.30
2011,07,24,16,29,27.30
2011,07,24,16,30,27.30
2011,07,24,16,31,27.30
2011,07,24,16,32,27.10
2011,07,24,16,33,27.00
2011,07,24,16,34,26.90
2011,07,24,16,35,26.80
2011,07,24,16,36,26.70
2011,07,24,16,37,26.70
2011,07,24,16,38,26.60
2011,07,24,16,39,26.60
2011,07,24,16,40,26.60
2011,07,24,16,41,26.60
2011,07,24,16,42,26.50
2011,07,24,16,43,26.40
2011,07,24,16,44,26.40
2011,07,24,16,45,26.40
2011,07,24,16,46,26.30
2011,07,24,16,47,26.30
2011,07,24,16,48,26.20
2011,07,24,16,49,26.10
2011,07,24,16,50,26.00
2011,07,24,16,51,25.90
2011,07,24,16,52,25.90
2011,07,24,16,53,25.90
2011,07,24,16,54,26.00
2011,07,24,16,55,26.10
2011,07,24,16,56,26.30
2011,07,24,16,57,26.30
2011,07,24,16,58,26.40
2011,07,24,16,59,26.50
2011,07,24,17,00,26.60
2011,07,24,17,01,26.60
2011,07,24,17,02,26.60
2011,07,24,17,03,26.60
2011,07,24,17,04,26.60
2011,07,24,17,05,26.60
2011,07,24,17,06,26.70
2011,07,24,17,07,26.70
2011,07,24,17,08,26.80
2011,07,24,17,09,26.80
2011,07,24,17,10,26.80
2011,07,24,17,11,26.90
2011,07,24,17,12,26.90
2011,07,24,17,13,26.90
2011,07,24,17,14,27.00
2011,07,24,17,15,27.10
2011,07,24,17,16,27.10
2011,07,24,17,17,27.20
2011,07,24,17,18,27.20
2011,07,24,17,19,27.20